ONEWEB-0181 (48230 NORAD) Tracking and Keplerian Element Data

This shows tracking and keplerian element data for the satellite.

Feedback or suggestion? Click here.




ElementValue
Catalog48230
NameONEWEB-0181
Epoch Orbit180
Epoch Day136.75001157
Epoch Year2021
RAAN305.7865
Inclination87.4141
Eccentricity0.0009059
Argument of Perigee193.1087
Mean Anonmoly179.1356
Mean Motion15.24691872
Decay Rate-0.01414027
L11 48230U 21031W 21136.75001157 -.01414027 00000-0 -63130-1 0 9998
L22 48230 87.4141 305.7865 0009059 193.1087 179.1356 15.24691872 1806

Live tracking and technical data element details for ONEWEB-0181 (NORAD 48230). ONEWEB-0181 can be tracked NOW for your location showing map with azimuth and elevation plus other details from your city location.

Track the satellite on the map from your city or location and see movement details for azimuth, elevation, latitude, longitude, range, height, and movement on the map or in text.







IsCatalogInMostPopularTable: catalog: 48230, numindb: 5
Update: records affected: 1



GetName: 48230 ONEWEB-0181

Hit Count: updated at: Mon, 17 May 2021 16:37:20 GMT